Satellite-Ground Cal/Val Site Overpasses Predictions

Prediction of Satellite NPP Overpassing Cal/Val Site: Antarctic Dome C

Ground Cal/Val Site Location: Latitude: -75.10, Longitude: 123.35; Satellite-Ground Site NADIR distance within 100 km.

Table of predicted overpasses for the next 14.0 days since TLE Epoch: 2/25/2023
Interval Starting Time Ending Time Minimum Distance Time Minimum Distance (km)
1 02/25/2023 15:09:14 02/25/2023 15:09:21 02/25/2023 15:09:17 96.99
2 02/26/2023 14:50:13 02/26/2023 14:50:42 02/26/2023 14:50:27 14.56
3 02/27/2023 07:52:05 02/27/2023 07:52:05 02/27/2023 07:52:05 99.87
4 02/28/2023 07:33:02 02/28/2023 07:33:31 02/28/2023 07:33:16 6.20
5 03/03/2023 14:56:27 03/03/2023 14:56:55 03/03/2023 14:56:41 21.51
6 03/04/2023 14:37:44 03/04/2023 14:37:59 03/04/2023 14:37:52 85.39
7 03/05/2023 07:39:15 03/05/2023 07:39:43 03/05/2023 07:39:29 29.43
8 03/06/2023 07:20:31 03/06/2023 07:20:48 03/06/2023 07:20:39 81.05
9 03/08/2023 15:02:43 03/08/2023 15:03:07 03/08/2023 15:02:55 57.83
10 03/09/2023 14:43:52 03/09/2023 14:44:17 03/09/2023 14:44:04 51.21
